CZ-4C DEB, 42671

Orbit data source: Space-Track

CZ-4C DEB, 42671 is space debris in SSO originally from a launch on Thu, 26 Nov 2015 UTC launched from the Taiyaun Space Center, China (TSC). Debris objects in space refer to the collection of defunct objects orbiting the Earth. Examples of debris include non-operational satellites, rocket bodies, and fragments generated from explosions, collisions, or faulty payload assembly.

Loading next visibility...
Identifier
42671, 2015-069D
Orbit
SSO
Country
Flag of CNCN / PRC
Related business
Manufacturer
Unknown
Mission
Spacecraft
Bus & Motor
Unknown
Mass
Unknown
Launch date (UTC)
2015-11-26 (10 years ago)
Launch vehicle
Unknown
Launch site
Taiyaun Space Center, China (TSC)
Object type
Payload
Rocket body
Debris
Shape & HBR
Unknown shape, 0.1 m
Radar Cross Section
Small (<0.1 m²)

Expand to show TLE details & history
Last TLE update: 8 hours ago

TLE from 8 hours ago
0 CZ-4C DEB
1 42671U 15069D   26124.34754374  .00004494  00000-0  57884-3 0  9999
2 42671  97.7914 347.0155 0113315 153.1723 207.5411 14.77096294550021
Epoch: 2026-05-04T08:20Z
TLE epoch observation values (Epoch: 2026-05-04T08:20:27.779Z)
Latitude
0.00007°
Longitude
-0.3383°
Altitude
712.23 km
Speed
7.462 km/s
True Right ascension
23h 08m 03s
True Declination
0° 00' 00"
Sunlit
Object was in daylight at epoch
Visualization orbit readout
Latitude
Unknown
Longitude
Unknown
Altitude
Unknown
Speed
Unknown
Apparent Right ascension
Unknown
Apparent Declination
Unknown
Sunlit
N/A
Visualization observer readout
Local Sidereal Time
23:42:49
Azimuth
Unknown
Elevation
Unknown
Doppler factor
Unknown
Orbital elements
Apogee altitude
715.02 km
Perigee altitude
556.069 km
Semi-major axis
7,013.681 km
Eccentricity
0.01133
Inclination
97.7914°
RAAN
347.0155°
Arg. of periapsis
153.1723°
True anomaly
206.94816°
Mean anomaly
207.5411°
Eccentric anomaly
207.24389°
Mean motion
3.69508 °/min
Orbital period
97.43 mins
BSTAR
0.00057884
Loading maneuver chart data...
Computing Atmospheric mass density...
Loading historical data...
Loading historical data...
Loading historical data...
Loading historical data...
Loading historical data...
Loading historical data...
Loading historical data...
Other satellites on launch #69 in the year 2015 (2015-11-26 UTC)

Documentation

Showing up to 5 results
|